Weather History for Adak, AK

Change the Weather History Date:

Monday, December 3, 2012

  Actual Average Record
Temperature  
Mean Temperature 34 °F -  
Max Temperature 41 °F 39 °F 48 °F (1979)
Min Temperature 26 °F 29 °F 16 °F (1969)
Degree Days  
Heating Degree Days 32    
Moisture  
Dew Point 34 °F    
Average Humidity 86    
Maximum Humidity 100    
Minimum Humidity 70    
Precipitation  
Precipitation 0.00 in - - ()
Sea Level Pressure  
Sea Level Pressure 30.11 in    
Wind  
Wind Speed 7 mph (SSW)    
Max Wind Speed 13 mph    
Max Gust Speed 17 mph    
Visibility 10 miles    
Events      
Averages and records for this station are not official NWS values.
T = Trace of Precipitation, MM = Missing Value Source: NWS Daily Summary

Daily Weather History Graph

Daily Weather History Graph

Search for Another Location

Airport:

Trip Planner

Search our weather history database for the weather conditions in past years. The results will help you decide how hot, cold, wet, or windy it might be!

Date:

Astronomy

Dec. 03, 2012 Rise Set
Actual Time 9:35 AM HAST 5:37 PM HAST
Civil Twilight 8:55 AM HAST 6:17 PM HAST
Nautical Twilight 8:12 AM HAST 7:00 PM HAST
Astronomical Twilight 7:32 AM HAST 7:41 PM HAST
Moon 11:01 PM HAST (12/3) 12:46 PM HAST (12/3)
Length of Visible Light 9h 21m
Length of Day
8h 02m
Waning Gibbous, 76% of the Moon is Illuminated
Dec 3
Waning Gibbous
Dec 6
Last Quarter
Dec 12
New
Dec 19
First Quarter
Dec 28
Full

Hourly Weather History & Observations

Time (HAST) Temp. Windchill Dew Point Humidity Pressure Visibility Wind Dir Wind Speed Gust Speed Precip Events Conditions
12:16 AM 37.4 °F 31.4 °F 30.2 °F 75% 30.18 in 10.0 mi South 8.1 mph - N/A   Overcast
12:36 AM 37.4 °F 31.4 °F 30.2 °F 75% 30.18 in 10.0 mi South 8.1 mph - N/A   Overcast
12:56 AM 37.4 °F 30.8 °F 30.2 °F 75% 30.18 in 10.0 mi South 9.2 mph - N/A   Overcast
1:16 AM 37.4 °F 30.8 °F 30.2 °F 75% 30.18 in 10.0 mi South 9.2 mph - N/A   Overcast
1:36 AM 37.4 °F 32.1 °F 30.2 °F 75% 30.17 in 10.0 mi South 6.9 mph - N/A   Overcast
1:56 AM 37.4 °F 30.3 °F 30.2 °F 75% 30.16 in 10.0 mi South 10.4 mph - N/A   Overcast
2:16 AM 37.4 °F 32.1 °F 30.2 °F 75% 30.16 in 10.0 mi South 6.9 mph - N/A   Overcast
2:36 AM 37.4 °F 32.8 °F 30.2 °F 75% 30.16 in 10.0 mi South 5.8 mph - N/A   Overcast
2:56 AM 37.4 °F 30.8 °F 30.2 °F 75% 30.16 in 10.0 mi South 9.2 mph - N/A   Overcast
3:16 AM 37.4 °F 32.1 °F 30.2 °F 75% 30.16 in 10.0 mi South 6.9 mph - N/A   Overcast
3:36 AM 39.2 °F 33.0 °F 30.2 °F 70% 30.16 in 10.0 mi South 9.2 mph - N/A   Overcast
3:56 AM 37.4 °F 32.1 °F 30.2 °F 75% 30.16 in 10.0 mi SSW 6.9 mph - N/A   Overcast
4:16 AM 37.4 °F 32.1 °F 28.4 °F 70% 30.16 in 10.0 mi South 6.9 mph - N/A   Overcast
4:36 AM 37.4 °F 31.4 °F 30.2 °F 75% 30.15 in 10.0 mi South 8.1 mph - N/A   Overcast
4:56 AM 37.4 °F 31.4 °F 30.2 °F 75% 30.14 in 10.0 mi South 8.1 mph - N/A   Overcast
5:16 AM 37.4 °F 30.3 °F 30.2 °F 75% 30.14 in 10.0 mi South 10.4 mph - N/A   Overcast
5:36 AM 37.4 °F 30.3 °F 32.0 °F 81% 30.14 in 10.0 mi South 10.4 mph - N/A   Overcast
5:56 AM 37.4 °F 31.4 °F 32.0 °F 81% 30.14 in 10.0 mi South 8.1 mph - N/A   Overcast
6:16 AM 37.4 °F 32.8 °F 32.0 °F 81% 30.14 in 10.0 mi South 5.8 mph - N/A   Overcast
6:36 AM 37.4 °F 32.8 °F 32.0 °F 81% 30.13 in 10.0 mi SSW 5.8 mph - N/A   Overcast
6:56 AM 37.4 °F 34.9 °F 30.2 °F 75% 30.13 in 10.0 mi SSW 3.5 mph - N/A   Overcast
7:16 AM 37.4 °F 34.9 °F 30.2 °F 75% 30.13 in 10.0 mi SW 3.5 mph - N/A   Overcast
7:36 AM 37.4 °F 34.9 °F 32.0 °F 81% 30.13 in 10.0 mi WSW 3.5 mph - N/A   Overcast
7:56 AM 37.4 °F 34.9 °F 32.0 °F 81% 30.13 in 10.0 mi SW 3.5 mph - N/A   Overcast
8:16 AM 37.4 °F 34.9 °F 32.0 °F 81% 30.13 in 10.0 mi SW 3.5 mph - N/A   Overcast
8:36 AM 37.4 °F 32.1 °F 33.8 °F 87% 30.14 in 10.0 mi SW 6.9 mph - N/A   Overcast
8:56 AM 37.4 °F 31.4 °F 33.8 °F 87% 30.13 in 10.0 mi SSW 8.1 mph - N/A   Overcast
9:16 AM 37.4 °F 32.8 °F 32.0 °F 81% 30.13 in 10.0 mi SSW 5.8 mph - N/A   Overcast
9:36 AM 35.6 °F 32.8 °F 32.0 °F 87% 30.14 in 10.0 mi SW 3.5 mph - N/A   Overcast
9:56 AM 37.4 °F 33.8 °F 33.8 °F 87% 30.14 in 10.0 mi SSW 4.6 mph - N/A   Overcast
10:16 AM 37.4 °F 34.9 °F 33.8 °F 87% 30.14 in 10.0 mi SSW 3.5 mph - N/A   Overcast
10:36 AM 39.2 °F 35.0 °F 35.6 °F 87% 30.14 in 10.0 mi South 5.8 mph - N/A   Overcast
10:56 AM 39.2 °F 34.2 °F 35.6 °F 87% 30.14 in 10.0 mi South 6.9 mph - N/A   Overcast
11:16 AM 39.2 °F 34.2 °F 35.6 °F 87% 30.14 in 10.0 mi South 6.9 mph - N/A   Overcast
11:36 AM 39.2 °F 34.2 °F 35.6 °F 87% 30.14 in 10.0 mi South 6.9 mph - N/A   Overcast
11:56 AM 39.2 °F 33.6 °F 35.6 °F 87% 30.14 in 10.0 mi South 8.1 mph - N/A   Mostly Cloudy
12:16 PM 39.2 °F 33.6 °F 35.6 °F 87% 30.14 in 10.0 mi South 8.1 mph - N/A   Overcast
12:36 PM 39.2 °F 33.6 °F 35.6 °F 87% 30.13 in 10.0 mi South 8.1 mph - N/A   Overcast
12:56 PM 39.2 °F 33.0 °F 37.4 °F 93% 30.13 in 10.0 mi South 9.2 mph - N/A   Mostly Cloudy
1:16 PM 39.2 °F 33.0 °F 37.4 °F 93% 30.13 in 10.0 mi South 9.2 mph - N/A   Mostly Cloudy
1:36 PM 39.2 °F 32.5 °F 37.4 °F 93% 30.12 in 10.0 mi South 10.4 mph - N/A   Overcast
1:56 PM 41.0 °F 36.4 °F 37.4 °F 87% 30.11 in 10.0 mi South 6.9 mph - N/A   Overcast
2:16 PM 41.0 °F 35.2 °F 37.4 °F 87% 30.11 in 10.0 mi SSW 9.2 mph - N/A   Overcast
2:36 PM 41.0 °F 34.7 °F 37.4 °F 87% 30.10 in 10.0 mi South 10.4 mph 16.1 mph N/A   Overcast
2:56 PM 41.0 °F 35.2 °F 37.4 °F 87% 30.10 in 10.0 mi South 9.2 mph - N/A   Overcast
3:16 PM 41.0 °F 35.8 °F 37.4 °F 87% 30.09 in 10.0 mi South 8.1 mph - N/A   Overcast
3:36 PM 41.0 °F 38.0 °F 37.4 °F 87% 30.09 in 10.0 mi South 4.6 mph - N/A   Overcast
3:56 PM 41.0 °F 38.0 °F 37.4 °F 87% 30.08 in 10.0 mi South 4.6 mph - N/A   Overcast
4:16 PM 41.0 °F 37.1 °F 37.4 °F 87% 30.08 in 10.0 mi South 5.8 mph - N/A   Overcast
4:36 PM 41.0 °F 36.4 °F 37.4 °F 87% 30.08 in 10.0 mi South 6.9 mph - N/A   Overcast
4:56 PM 41.0 °F 37.1 °F 37.4 °F 87% 30.08 in 10.0 mi South 5.8 mph - N/A   Overcast
5:16 PM 41.0 °F 38.0 °F 37.4 °F 87% 30.08 in 9.0 mi SSE 4.6 mph - N/A   Overcast
5:36 PM 39.2 °F 35.9 °F 37.4 °F 93% 30.08 in 7.0 mi SE 4.6 mph - N/A   Overcast
5:56 PM 39.2 °F - 37.4 °F 93% 30.08 in 10.0 mi Calm Calm - N/A   Overcast
6:16 PM 39.2 °F - 37.4 °F 93% 30.07 in 10.0 mi Calm Calm - N/A   Overcast
6:36 PM 39.2 °F - 37.4 °F 93% 30.07 in 10.0 mi Calm Calm - N/A   Overcast
6:56 PM 39.2 °F - 37.4 °F 93% 30.07 in 10.0 mi Calm Calm - N/A   Overcast
7:16 PM 39.2 °F 37.0 °F 37.4 °F 93% 30.07 in 3.0 mi West 3.5 mph - N/A   Overcast
7:36 PM 39.2 °F - 37.4 °F 93% 30.06 in 4.0 mi Calm Calm - N/A   Overcast
7:56 PM 37.4 °F 34.9 °F 37.4 °F 100% 30.06 in 8.0 mi North 3.5 mph - N/A   Overcast
8:16 PM 37.4 °F 33.8 °F 37.4 °F 100% 30.06 in 2.5 mi North 4.6 mph - N/A   Overcast
8:36 PM 39.2 °F 37.0 °F 37.4 °F 93% 30.05 in 7.0 mi NNE 3.5 mph - N/A   Overcast
8:56 PM 39.2 °F 35.9 °F 37.4 °F 93% 30.05 in 10.0 mi North 4.6 mph - N/A   Overcast
9:16 PM 37.4 °F 32.8 °F 37.4 °F 100% 30.05 in 10.0 mi SSE 5.8 mph - N/A   Overcast
9:36 PM 39.2 °F - 37.4 °F 93% 30.05 in 10.0 mi Calm Calm - N/A   Overcast
9:56 PM 37.4 °F 34.9 °F 35.6 °F 93% 30.05 in 10.0 mi West 3.5 mph - N/A   Overcast
10:16 PM 37.4 °F 32.8 °F 35.6 °F 93% 30.05 in 10.0 mi NW 5.8 mph - N/A   Overcast
10:36 PM 37.4 °F 32.8 °F 37.4 °F 100% 30.05 in 10.0 mi NNW 5.8 mph - N/A   Overcast
10:56 PM 37.4 °F 30.8 °F 35.6 °F 93% 30.05 in 10.0 mi NNW 9.2 mph - N/A   Overcast
11:16 PM 37.4 °F 30.3 °F 35.6 °F 93% 30.05 in 7.0 mi North 10.4 mph - N/A   Overcast
11:36 PM 37.4 °F 29.3 °F 35.6 °F 93% 30.04 in 10.0 mi NW 12.7 mph 17.3 mph N/A   Overcast
11:56 PM 37.4 °F 30.3 °F 35.6 °F 93% 30.04 in 10.0 mi NNW 10.4 mph - N/A   Overcast